Probability
0 0 0 0 0 0 0 0 0 0 0 0 0 0 0 0 0 0 0 0 0 0 0 0 0 0 0 0 0 0 0 0 0 0 0 0 0 0 0 0 0 0 0
0 0 0 0 0 0 0 0 0 0 0 0 0 0 0 0 0 0 0 0 0 0 0 0 0 0 0 0 0 0 0 0 0 0 0 0 0 0 0 0 0 0 0
0 0 0 0 0 0 0 0 0 0 0 0 0 0 0 0 0 0 0 0 0 0 0 0 0 0 0 0 0 0 0 0 0 0 0 0 0 0 0 0 0 0 0
0 0 0 0 0 0 0 0 0 0 0 0 0 0 0 0 0 0 0 0 0 0 0 0 0 0 0 0 0 0 0 0 0 0 0 0 0 0 0 0 0 0 0
1 0 1 1 0 0 0 0 0 0 0 0 0 0 0 0 0 0 0 0 0 0 0 0 0 0 0 0 0 0 0 0 0 0 0 0 0 0 0 0 0 0 0
2 2 3 2 1 0 0 0 0 0 0 0 0 0 0 0 0 0 0 0 0 0 0 0 0 0 0 0 0 0 0 0 0 0 0 0 0 0 0 0 0 0 0
3 5 6 5 1 0 0 0 0 0 0 0 0 0 0 0 0 0 0 0 0 0 0 0 0 0 0 0 0 0 0 0 0 0 0 0 0 0 0 0 0 0 0
9 8 8 6 2 0 0 0 0 0 0 0 0 0 0 0 0 0 0 0 0 0 0 0 0 0 0 0 0 0 0 0 0 0 0 0 0 0 0 0 0 0 0
26 16 9 6 2 0 0 0 0 0 0 0 0 0 0 0 0 0 0 0 0 0 0 0 0 0 0 0 0 0 0 0 0 0 0 0 0 0 0 0 0 0 0
45 26 10 5 2 0 0 0 0 0 0 0 0 0 0 0 0 0 0 0 0 0 0 0 0 0 0 0 0 0 0 0 0 0 0 0 0 0 0 0 0 0 0
55 32 12 5 2 0 0 0 0 0 0 0 0 0 0 0 0 0 0 0 0 0 0 0 0 0 0 0 0 0 0 0 0 0 0 0 0 0 0 0 0 0 0
57 35 15 6 3 1 0 0 0 0 0 0 0 0 0 0 0 0 0 0 0 0 0 0 0 0 0 0 0 0 0 0 0 0 0 0 0 0 0 0 0 0 0
54 39 18 8 3 1 0 0 0 0 0 0 0 0 0 0 0 0 0 0 0 0 0 0 0 0 0 0 0 0 0 0 0 0 0 0 0 0 0 0 0 0 0
51 39 21 9 3 1 0 0 0 0 0 0 0 0 0 0 0 0 0 0 0 0 0 0 0 0 0 0 0 0 0 0 0 0 0 0 0 0 0 0 0 0 0
42 34 21 9 2 0 0 0 0 0 0 0 0 0 0 0 0 0 0 0 0 0 0 0 0 0 0 0 0 0 0 0 0 0 0 0 0 0 0 0 0 0 0
29 25 16 7 1 0 0 0 0 0 0 0 0 0 0 0 0 0 0 0 0 0 0 0 0 0 0 0 0 0 0 0 0 0 0 0 0 0 0 0 0 0 0
16 14 9 4 1 0 0 0 0 0 0 0 0 0 0 0 0 0 0 0 0 0 0 0 0 0 0 0 0 0 0 0 0 0 0 0 0 0 0 0 0 0 0
7 6 4 1 0 0 0 0 0 0 0 0 0 0 0 0 0 0 0 0 0 0 0 0 0 0 0 0 0 0 0 0 0 0 0 0 0 0 0 0 0 0 0
2 1 1 0 0 0 0 0 0 0 0 0 0 0 0 0 0 0 0 0 0 0 0 0 0 0 0 0 0 0 0 0 0 0 0 0 0 0 0 0 0 0 0
0 0 0 0 0 0 0 0 0 0 0 0 0 0 0 0 0 0 0 0 0 0 0 0 0 0 0 0 0 0 0 0 0 0 0 0 0 0 0 0 0 0 0
0 0 0 0 0 0 0 0 0 0 0 0 0 0 0 0 0 0 0 0 0 0 0 0 0 0 0 0 0 0 0 0 0 0 0 0 0 0 0 0 0 0 0
0 0 0 0 0 0 0 0 0 0 0 0 0 0 0 0 0 0 0 0 0 0 0 0 0 0 0 0 0 0 0 0 0 0 0 0 0 0 0 0 0 0 0
0 0 0 0 0 0 0 0 0 0 0 0 0 0 0 0 0 0 0 0 0 0 0 0 0 0 0 0 0 0 0 0 0 0 0 0 0 0 0 0 0 0 0
0 0 0 0 0 0 0 0 0 0 0 0 0 0 0 0 0 0 0 0 0 0 0 0 0 0 0 0 0 0 0 0 0 0 0 0 0 0 0 0 0 0 0
0 0 0 0 0 0 0 0 0 0 0 0 0 0 0 0 0 0 0 0 0 0 0 0 0 0 0 0 0 0 0 0 0 0 0 0 0 0 0 0 0 0 0
0 0 0 0 0 0 0 0 0 0 0 0 0 0 0 0 0 0 0 0 0 0 0 0 0 0 0 0 0 0 0 0 0 0 0 0 0 0 0 0 0 0 0
Wind_Speed
8 7 6 6 7 5 6 5 5 5 5 4 4 4 5 5 5 5 5 7 7 8 8 8 8 8 8 8 8 8 8 8 8 9 9 10 10 11 11 11 11 11 11
8 8 7 7 7 6 6 6 6 5 4 4 4 5 5 5 5 5 6 7 7 7 7 7 7 7 7 7 7 6 6 6 7 7 8 8 9 9 10 10 10 10 10
10 9 8 8 7 7 7 6 6 5 4 4 5 5 5 6 6 6 5 5 6 7 7 7 7 6 6 6 5 5 5 5 5 5 6 7 7 8 8 9 10 10 10
13 10 9 8 9 8 7 7 6 6 5 5 5 5 5 4 7 6 6 6 5 6 7 7 6 6 5 4 4 4 3 3 3 3 4 5 6 6 7 8 9 10 10
15 12 9 9 10 8 8 7 7 7 6 6 5 4 5 6 6 6 7 7 6 6 6 7 6 5 4 3 3 3 2 2 2 2 4 5 6 7 8 9 9 10 11
15 13 10 11 11 9 9 9 9 7 5 6 5 4 5 5 5 6 7 6 6 7 6 6 5 5 3 2 2 3 3 3 3 4 5 6 8 9 9 10 11 11 12
14 14 11 12 12 11 12 13 9 10 6 7 5 5 5 6 7 6 6 7 8 7 7 6 4 4 3 2 1 3 4 4 5 5 7 8 10 11 11 12 13 13 14
15 13 15 12 13 12 14 14 12 8 6 8 6 5 5 6 7 8 7 7 8 7 7 7 6 5 3 2 2 1 3 5 6 8 9 10 12 13 14 15 15 15 16
15 15 16 14 13 13 13 15 15 14 9 9 8 6 6 7 6 7 9 8 8 7 7 7 7 5 4 2 3 3 2 4 7 9 10 12 13 15 16 17 17 17 17
15 15 15 14 13 12 14 15 15 13 12 10 7 6 4 2 5 6 6 8 9 9 8 6 6 6 5 3 2 2 2 4 7 10 12 14 16 17 18 18 19 18 18
14 14 14 13 13 13 15 15 15 16 12 12 8 6 5 3 4 4 5 7 7 8 7 7 6 5 5 4 3 2 1 5 8 12 15 17 18 19 19 19 19 19 19
10 13 13 13 13 12 15 15 15 16 13 13 10 8 7 6 6 5 4 5 6 6 7 6 5 5 5 4 3 1 2 6 10 14 17 18 19 19 19 19 19 20 20
9 12 12 12 12 12 13 12 13 14 14 13 11 8 6 4 3 3 3 3 3 3 5 5 5 5 4 4 4 2 4 6 11 15 18 19 19 19 20 20 20 21 21
9 11 12 12 12 12 11 10 9 11 10 10 9 7 4 4 3 3 3 5 4 3 4 5 3 4 4 4 2 4 6 7 11 15 18 19 20 20 21 21 21 22 22
8 10 10 11 11 11 11 10 8 9 8 7 6 7 5 4 4 3 3 3 4 4 3 3 2 3 3 3 4 6 7 9 12 16 18 19 20 20 21 22 22 22 22
7 7 8 9 9 9 9 8 7 7 8 7 6 8 7 6 5 5 4 4 4 3 3 2 2 2 2 3 6 8 9 12 15 17 17 19 20 21 22 22 22 22 22
6 6 7 8 8 9 9 8 8 9 10 9 9 10 9 8 6 5 5 5 4 3 2 1 1 2 4 6 6 7 8 9 9 15 17 19 20 21 22 22 22 22 22
4 4 5 6 7 8 8 9 10 10 11 12 11 11 10 8 8 6 5 5 4 3 2 3 3 4 6 6 7 9 8 8 9 14 18 20 21 21 21 21 21 21 22
1 3 5 6 6 7 8 8 9 10 10 11 11 11 10 10 8 6 6 4 3 3 3 4 4 4 5 5 8 9 10 9 9 11 16 18 19 20 20 20 21 21 22
4 5 5 6 6 7 8 9 10 11 11 11 10 10 9 8 8 7 5 4 4 3 4 5 5 5 6 6 7 7 8 7 8 9 12 14 16 18 20 21 22 23 23
8 8 9 9 9 8 8 11 11 12 12 12 10 9 7 8 8 5 4 4 4 4 4 5 6 6 6 6 6 6 8 9 9 9 9 8 9 10 12 16 19 21 22
10 10 10 10 10 8 15 16 13 11 11 10 9 8 7 6 6 4 4 6 7 6 6 5 6 7 8 7 7 7 8 10 10 6 9 10 10 12 11 11 16 21 23
11 11 11 11 12 14 18 18 17 11 10 9 8 7 5 4 4 2 2 4 6 7 8 8 9 9 9 8 8 10 10 11 11 10 11 13 11 13 11 12 21 23 25
9 10 10 11 11 14 19 19 17 11 9 8 6 5 5 4 2 3 3 4 5 5 6 6 7 8 8 9 9 10 11 12 13 11 11 13 12 12 12 12 19 23 25
9 9 9 11 12 13 17 16 12 7 7 6 5 4 3 2 1 4 3 4 5 5 5 8 11 12 14 15 13 9 9 9 11 10 9 9 10 11 12 13 14 19 21
9 9 10 9 9 9 12 11 8 4 5 4 4 3 2 2 2 3 3 4 5 6 7 7 9 10 10 11 12 10 8 8 8 7 6 6 8 9 9 9 9 9 12
Wind_Direction
204 206 208 199 201 192 188 195 199 183 182 174 177 180 175 173 168 148 120 100 104 112 111 106 101 96 91 84 79 73 66 59 55 52 49 46 41 36 33 31 26 22 20
205 203 205 203 204 201 198 198 200 190 187 185 182 185 182 175 176 168 143 122 103 111 118 112 104 96 89 81 76 71 65 56 51 47 42 40 35 29 26 23 19 15 11
210 205 203 198 199 199 195 198 189 193 185 182 188 188 188 186 178 173 166 152 136 115 120 120 112 101 89 78 71 70 65 53 45 39 33 28 24 18 13 11 8 4 0
213 209 206 202 196 191 187 186 184 185 183 190 186 183 189 187 192 180 174 173 160 149 131 120 113 104 91 72 57 55 57 48 33 24 14 5 359 356 353 352 350 348 346
214 210 208 202 195 193 190 186 190 189 188 186 183 184 191 191 189 191 189 182 172 172 151 126 114 97 89 69 40 21 14 6 354 343 335 331 328 327 328 330 331 330 330
216 213 209 203 195 194 191 190 186 187 185 171 167 181 196 198 200 201 195 187 182 182 180 166 163 131 108 65 14 342 322 307 302 305 308 310 309 310 313 315 316 316 316
214 214 209 203 198 200 197 194 182 179 174 164 160 178 193 210 214 204 204 199 193 190 191 191 192 187 164 143 9 325 306 297 295 296 300 302 303 303 305 306 307 307 307
214 212 213 205 202 204 200 194 182 181 171 182 180 173 191 199 213 212 207 210 202 192 200 200 197 198 206 212 107 344 321 313 307 302 301 302 302 303 303 301 300 301 301
216 213 217 213 205 204 201 196 191 186 181 190 200 192 191 202 179 191 209 208 206 203 201 197 200 196 194 204 193 152 21 333 314 308 307 307 305 302 299 298 296 295 296
217 216 218 217 209 209 206 199 198 197 187 184 197 228 251 205 180 176 195 209 210 212 206 196 196 191 190 190 156 83 19 328 314 313 310 307 303 300 297 295 295 295 296
219 216 216 215 212 212 214 203 200 200 196 191 182 176 194 212 228 194 180 187 202 212 206 200 195 191 186 193 200 127 345 318 315 313 309 306 303 300 298 297 297 296 295
220 216 215 214 215 214 217 211 204 205 204 200 190 180 174 177 192 198 183 172 187 188 193 196 198 193 188 192 179 103 305 311 313 311 308 305 302 301 300 299 297 295 292
225 217 212 216 217 219 219 214 208 209 208 206 201 197 191 178 156 174 172 145 153 145 181 197 200 191 185 198 180 193 254 298 308 308 306 304 303 303 301 297 293 291 289
236 224 214 216 218 219 218 212 210 209 209 208 203 188 163 139 133 150 151 143 145 153 179 172 168 189 189 204 185 247 266 283 300 304 303 303 303 301 297 293 291 289 288
246 231 215 213 214 213 210 203 205 202 198 198 180 158 138 122 113 107 108 131 149 160 164 142 165 183 201 220 223 263 279 283 292 294 295 297 296 293 291 289 288 286 285
250 234 218 210 207 204 199 192 188 181 173 164 150 143 133 130 119 105 96 80 76 108 137 143 165 162 200 243 257 278 283 287 281 284 287 290 291 289 287 285 284 283 282
250 232 216 204 196 191 186 181 176 167 160 150 146 140 132 128 117 105 97 90 82 87 148 147 173 203 232 249 264 269 277 281 281 281 284 288 288 286 284 283 282 281 280
242 215 194 186 181 177 174 172 167 161 155 149 143 134 129 122 112 108 104 102 105 104 154 221 219 217 238 254 267 275 277 277 277 283 287 288 286 285 284 282 280 278 278
162 151 156 159 160 160 159 155 150 145 140 135 132 128 125 123 118 119 120 127 137 156 192 232 253 246 252 259 273 275 275 275 276 279 284 285 285 284 283 281 280 280 281
102 107 113 118 125 130 131 130 127 123 118 112 110 112 117 123 128 136 139 151 161 183 208 235 253 259 261 262 266 277 283 283 286 288 285 284 283 282 281 280 280 279 278
81 89 93 94 99 105 115 119 117 116 112 106 101 101 107 120 136 147 153 168 184 209 225 239 253 263 264 268 273 284 288 295 293 291 288 285 285 280 281 279 276 274 274
78 83 88 93 94 99 114 115 114 109 109 109 107 102 104 107 122 142 189 206 212 225 237 247 260 267 277 285 291 292 296 296 296 292 293 291 290 285 282 278 277 278 278
79 83 87 92 96 105 109 107 104 99 100 101 105 109 110 114 120 160 218 247 252 259 260 267 274 279 289 294 298 292 286 286 286 290 293 288 287 284 282 277 278 278 279
76 81 84 87 91 95 97 96 95 90 91 95 102 115 125 139 165 216 228 240 251 254 262 270 278 286 288 289 283 282 285 285 284 279 275 279 282 282 284 281 280 279 279
73 73 75 79 84 86 89 94 95 96 102 111 123 126 123 130 189 268 265 261 268 271 266 277 286 287 287 286 285 285 281 280 283 285 284 279 282 288 287 283 279 278 277
73 74 72 75 88 98 105 108 111 114 119 123 121 110 71 359 337 317 293 277 284 297 300 292 284 281 280 279 277 268 267 269 276 282 279 273 285 301 293 279 280 284 282